Simultaneous Nadir Overpasses (SNOs) Predictions

Prediction of SNOs between GOES-16 and TERRA Satellite Orbit:

Table of predicted SNOs for the next 14.0 days since TLE Epoch: 1/21/2017
Index Date Time (GOES-16) GOES-16 Lat,Lon TERRA Lat,Lon Distance(km) Time Diff (sec)
1 01/21/2017 04:25:22 -0.00, -89.51 0.23, -88.47 118.78 80
2 01/21/2017 16:46:38 -0.00, -89.56 0.85, -93.63 462.68 80
3 01/23/2017 04:13:11 -0.00, -89.58 0.85, -85.52 462.31 80
4 01/23/2017 16:34:27 -0.00, -89.63 0.24, -90.68 119.24 80
5 01/25/2017 16:19:38 0.00, -89.71 -0.44, -87.74 224.13 80
6 01/26/2017 04:41:01 -0.00, -89.70 -0.70, -92.93 367.61 80
7 01/28/2017 04:28:52 -0.01, -89.77 -0.08, -89.98 24.54 80
8 01/30/2017 04:19:25 -0.01, -89.85 0.56, -87.04 318.80 80
9 01/30/2017 16:38:01 0.01, -89.90 0.51, -92.21 262.77 80
10 02/01/2017 16:28:34 0.01, -89.98 -0.13, -89.27 80.24 80
11 02/03/2017 16:16:28 0.02, -90.07 -0.78, -86.35 422.91 80




NCC Satellite Simultaneous Nadir Overpasses (SNOs) Prediction Service
